• In Czech Republic
  • List of Countries
  • For 7 days
  • Water Temperature
  • Satellite Maps
  • Weather Map
  • Weather Widgets
  • user-avatar
    Login

    Hourly Weather Kalgoorlie

    Today, 18 August, Friday

    Time Temperature Precipitation Wind Pressure Humidity
    00:00 +10°C° 0 mm 3 mps 733 mmHg 36%
    01:00 +10°C° 0 mm 3 mps 733 mmHg 36%
    02:00 +10°C° 0 mm 3 mps 732 mmHg 37%
    03:00 +8°C° 0 mm 4 mps 732 mmHg 38%
    04:00 +8°C° 0 mm 4 mps 733 mmHg 39%
    05:00 +8°C° 0 mm 4 mps 733 mmHg 40%
    06:00 +8°C° 0 mm 5 mps 733 mmHg 39%
    07:00 +9°C° 0 mm 6 mps 733 mmHg 37%
    08:00 +10°C° 0 mm 7 mps 733 mmHg 36%
    09:00 +12°C° 0 mm 8 mps 733 mmHg 33%
    10:00 +15°C° 0 mm 8 mps 733 mmHg 31%
    11:00 +17°C° 0 mm 8 mps 732 mmHg 28%
    12:00 +18°C° 0 mm 8 mps 732 mmHg 27%
    13:00 +21°C° 0 mm 8 mps 731 mmHg 26%
    14:00 +22°C° 0 mm 7 mps 731 mmHg 24%
    15:00 +21°C° 0 mm 6 mps 731 mmHg 25%
    16:00 +21°C° 0 mm 6 mps 730 mmHg 26%
    17:00 +21°C° 0 mm 5 mps 730 mmHg 27%
    18:00 +20°C° 0 mm 6 mps 730 mmHg 26%
    19:00 +18°C° 0 mm 7 mps 730 mmHg 26%
    20:00 +17°C° 0 mm 8 mps 730 mmHg 26%
    21:00 +17°C° 0 mm 9 mps 730 mmHg 24%
    22:00 +17°C° 0 mm 10 mps 730 mmHg 23%
    23:00 +17°C° 0 mm 11 mps 729 mmHg 22%

    Tomorrow, 19 August, Saturday

    Time Temperature Precipitation Wind Pressure Humidity
    00:00 +17°C° 0 mm 10 mps 729 mmHg 22%
    01:00 +17°C° 0 mm 10 mps 728 mmHg 22%
    02:00 +17°C° 0 mm 9 mps 728 mmHg 22%
    03:00 +17°C° 0 mm 8 mps 728 mmHg 23%
    04:00 +17°C° 0 mm 7 mps 728 mmHg 25%
    05:00 +16°C° 0 mm 6 mps 728 mmHg 26%
    06:00 +16°C° 0 mm 6 mps 728 mmHg 27%
    07:00 +16°C° 0 mm 6 mps 728 mmHg 28%
    08:00 +16°C° 0 mm 5 mps 728 mmHg 30%
    09:00 +17°C° 0 mm 5 mps 728 mmHg 34%
    10:00 +17°C° 0 mm 5 mps 728 mmHg 39%
    11:00 +18°C° 0 mm 4 mps 728 mmHg 43%
    12:00 +18°C° 0.1 mm 4 mps 728 mmHg 50%
    13:00 +17°C° 0.1 mm 4 mps 727 mmHg 56%
    14:00 +15°C° 0.1 mm 4 mps 726 mmHg 63%
    15:00 +17°C° 0 mm 4 mps 727 mmHg 58%
    16:00 +16°C° 0 mm 5 mps 727 mmHg 53%
    17:00 +17°C° 0 mm 5 mps 727 mmHg 48%
    18:00 +16°C° 0 mm 5 mps 728 mmHg 51%
    19:00 +15°C° 0 mm 6 mps 728 mmHg 55%
    20:00 +14°C° 0 mm 6 mps 729 mmHg 58%
    21:00 +13°C° 0 mm 6 mps 729 mmHg 60%
    22:00 +11°C° 0 mm 6 mps 729 mmHg 61%
    23:00 +11°C° 0 mm 6 mps 729 mmHg 62%

    Day after tomorrow, 20 August, Sunday

    Time Temperature Precipitation Wind Pressure Humidity
    00:00 +10°C° 0 mm 6 mps 729 mmHg 65%
    01:00 +9°C° 0 mm 7 mps 729 mmHg 69%
    02:00 +9°C° 0 mm 7 mps 729 mmHg 72%
    03:00 +8°C° 0 mm 7 mps 729 mmHg 74%
    04:00 +7°C° 0 mm 8 mps 729 mmHg 77%
    05:00 +6°C° 0 mm 8 mps 729 mmHg 80%
    06:00 +7°C° 0 mm 8 mps 730 mmHg 78%
    07:00 +8°C° 0 mm 9 mps 731 mmHg 76%
    08:00 +9°C° 0 mm 10 mps 731 mmHg 74%
    09:00 +11°C° 0 mm 10 mps 732 mmHg 71%
    10:00 +11°C° 0 mm 9 mps 732 mmHg 68%
    11:00 +12°C° 0 mm 9 mps 732 mmHg 65%
    12:00 +13°C° 0 mm 9 mps 732 mmHg 62%
    13:00 +15°C° 0 mm 9 mps 732 mmHg 59%
    14:00 +15°C° 0 mm 9 mps 732 mmHg 56%
    15:00 +15°C° 0 mm 8 mps 732 mmHg 56%
    16:00 +15°C° 0 mm 7 mps 732 mmHg 56%
    17:00 +15°C° 0 mm 6 mps 732 mmHg 56%
    18:00 +14°C° 0 mm 5 mps 733 mmHg 61%
    19:00 +12°C° 0 mm 4 mps 733 mmHg 66%
    20:00 +11°C° 0 mm 3 mps 734 mmHg 70%
    21:00 +11°C° 0 mm 3 mps 734 mmHg 73%
    22:00 +10°C° 0 mm 3 mps 734 mmHg 75%
    23:00 +10°C° 0 mm 2 mps 734 mmHg 78%

    21 August, Monday

    Time Temperature Precipitation Wind Pressure Humidity
    00:00 +9°C° 0 mm 2 mps 734 mmHg 80%
    01:00 +10°C° 0 mm 1 mps 734 mmHg 83%
    02:00 +9°C° 0 mm 1 mps 734 mmHg 86%
    03:00 +9°C° 0 mm 1 mps 734 mmHg 87%
    04:00 +9°C° 0 mm 1 mps 734 mmHg 88%
    05:00 +8°C° 0 mm 1 mps 734 mmHg 89%
    06:00 +9°C° 0 mm 1 mps 734 mmHg 85%
    07:00 +9°C° 0 mm 2 mps 734 mmHg 81%
    08:00 +10°C° 0 mm 2 mps 735 mmHg 76%
    09:00 +12°C° 0 mm 2 mps 734 mmHg 68%
    10:00 +14°C° 0 mm 2 mps 734 mmHg 60%
    11:00 +16°C° 0 mm 2 mps 734 mmHg 52%
    12:00 +17°C° 0 mm 3 mps 733 mmHg 47%
    13:00 +18°C° 0 mm 3 mps 733 mmHg 41%
    14:00 +19°C° 0 mm 3 mps 732 mmHg 36%
    15:00 +19°C° 0 mm 3 mps 732 mmHg 36%
    16:00 +19°C° 0 mm 3 mps 732 mmHg 35%
    17:00 +19°C° 0 mm 3 mps 732 mmHg 35%
    18:00 +17°C° 0 mm 2 mps 733 mmHg 38%
    19:00 +16°C° 0 mm 2 mps 733 mmHg 41%
    20:00 +15°C° 0 mm 2 mps 734 mmHg 45%
    21:00 +14°C° 0 mm 2 mps 734 mmHg 48%
    22:00 +12°C° 0 mm 3 mps 734 mmHg 52%
    23:00 +12°C° 0 mm 3 mps 734 mmHg 55%

    22 August, Tuesday

    Time Temperature Precipitation Wind Pressure Humidity
    00:00 +11°C° 0 mm 3 mps 734 mmHg 60%
    01:00 +10°C° 0 mm 3 mps 734 mmHg 65%
    02:00 +10°C° 0 mm 3 mps 733 mmHg 69%
    03:00 +10°C° 0 mm 3 mps 734 mmHg 71%
    04:00 +9°C° 0 mm 3 mps 734 mmHg 73%
    05:00 +9°C° 0 mm 2 mps 734 mmHg 74%
    06:00 +10°C° 0 mm 2 mps 734 mmHg 70%
    07:00 +12°C° 0 mm 2 mps 735 mmHg 66%
    08:00 +11°C° 0 mm 3 mps 735 mmHg 62%
    09:00 +14°C° 0 mm 2 mps 735 mmHg 56%
    10:00 +16°C° 0 mm 2 mps 735 mmHg 50%
    11:00 +17°C° 0 mm 2 mps 735 mmHg 44%
    12:00 +19°C° 0 mm 1 mps 734 mmHg 41%
    13:00 +20°C° 0 mm 1 mps 734 mmHg 38%
    14:00 +19°C° 0 mm 0 mps 733 mmHg 35%
    15:00 +19°C° 0 mm 0 mps 734 mmHg 34%
    16:00 +21°C° 0 mm 1 mps 734 mmHg 34%
    17:00 +21°C° 0 mm 1 mps 734 mmHg 34%
    18:00 +18°C° 0 mm 2 mps 734 mmHg 37%
    19:00 +17°C° 0 mm 2 mps 735 mmHg 39%
    20:00 +16°C° 0 mm 2 mps 735 mmHg 42%
    21:00 +16°C° 0 mm 3 mps 735 mmHg 43%
    22:00 +14°C° 0 mm 3 mps 735 mmHg 45%
    23:00 +14°C° 0 mm 3 mps 735 mmHg 46%

    23 August, Wednesday

    Time Temperature Precipitation Wind Pressure Humidity
    00:00 +13°C° 0 mm 3 mps 735 mmHg 50%
    01:00 +13°C° 0 mm 4 mps 735 mmHg 53%
    02:00 +12°C° 0 mm 4 mps 735 mmHg 57%
    03:00 +11°C° 0 mm 4 mps 735 mmHg 64%
    04:00 +11°C° 0 mm 4 mps 735 mmHg 71%
    05:00 +9°C° 0 mm 5 mps 735 mmHg 78%
    06:00 +10°C° 0 mm 5 mps 735 mmHg 73%
    07:00 +12°C° 0 mm 5 mps 736 mmHg 69%
    08:00 +12°C° 0 mm 5 mps 736 mmHg 65%
    09:00 +14°C° 0 mm 5 mps 736 mmHg 56%
    10:00 +17°C° 0 mm 6 mps 736 mmHg 46%
    11:00 +20°C° 0 mm 6 mps 736 mmHg 37%
    12:00 +21°C° 0 mm 5 mps 735 mmHg 34%
    13:00 +21°C° 0 mm 5 mps 735 mmHg 32%
    14:00 +22°C° 0 mm 4 mps 734 mmHg 29%
    15:00 +21°C° 0 mm 4 mps 735 mmHg 31%
    16:00 +21°C° 0 mm 4 mps 735 mmHg 32%
    17:00 +20°C° 0 mm 3 mps 735 mmHg 33%
    18:00 +20°C° 0 mm 3 mps 736 mmHg 35%
    19:00 +19°C° 0 mm 3 mps 736 mmHg 37%
    20:00 +19°C° 0 mm 3 mps 737 mmHg 39%
    21:00 +18°C° 0 mm 4 mps 736 mmHg 42%
    22:00 +17°C° 0 mm 5 mps 736 mmHg 45%
    23:00 +16°C° 0 mm 6 mps 736 mmHg 48%
    Show more